This is the latest recevied weather packets stored in our database for station/object N5RPG. If no packets are shown the sender has not sent any weather packets the latest 10 day(s).
| Time | Temp. | Humidity | Pressure | Rain* | Wind** | Luminosity | Snow |
|---|---|---|---|---|---|---|---|
| 1778118752 | 13.33° C | 90% | 1015.5 hPa | 0 mm | - | 0 W/m² | - |
| 1778118449 | 13.33° C | 90% | 1015.3 hPa | 0 mm | - | 0 W/m² | - |
| 1778118145 | 13.89° C | 90% | 1015.1 hPa | 0 mm | - | 0 W/m² | - |
| 1778117842 | 13.89° C | 91% | 1015 hPa | 0 mm | - | 0 W/m² | - |
| 1778117539 | 13.89° C | 91% | 1014.9 hPa | 0 mm | - | 0 W/m² | - |
| 1778117237 | 13.89° C | 91% | 1014.9 hPa | 0 mm | - | 0 W/m² | - |
| 1778116937 | 13.89° C | 91% | 1014.8 hPa | 0 mm | - | 0 W/m² | - |
| 1778116635 | 14.44° C | 91% | 1014.8 hPa | 0 mm | - | 0 W/m² | - |
| 1778116331 | 14.44° C | 91% | 1014.6 hPa | 0 mm | - | 0 W/m² | - |
| 1778116030 | 14.44° C | 91% | 1014.8 hPa | 0 mm | - | 0 W/m² | - |
| 1778115727 | 14.44° C | 91% | 1014.3 hPa | 0 mm | - | 0 W/m² | - |
| 1778115425 | 14.44° C | 91% | 1014.3 hPa | 0 mm | - | 1 W/m² | - |
| 1778115120 | 14.44° C | 91% | 1014.6 hPa | 0 mm | - | 1 W/m² | - |
| 1778114817 | 14.44° C | 91% | 1014.6 hPa | 0 mm | - | 2 W/m² | - |
| 1778114515 | 14.44° C | 91% | 1014.8 hPa | 0 mm | - | 2 W/m² | - |
| 1778114211 | 14.44° C | 91% | 1014.8 hPa | 0 mm | - | 3 W/m² | - |
| 1778113911 | 14.44° C | 91% | 1014.5 hPa | 0 mm | - | 4 W/m² | - |
| 1778113608 | 14.44° C | 91% | 1014 hPa | 0 mm | - | 8 W/m² | - |
| 1778113304 | 14.44° C | 91% | 1014.1 hPa | 0 mm | - | 8 W/m² | - |
| 1778113001 | 14.44° C | 91% | 1014.3 hPa | 0 mm | - | 6 W/m² | - |
| 1778112698 | 14.44° C | 91% | 1014.1 hPa | 0 mm | - | 9 W/m² | - |
| 1778112394 | 14.44° C | 91% | 1013.9 hPa | 0 mm | - | 13 W/m² | - |
| 1778112090 | 14.44° C | 91% | 1013.7 hPa | 0 mm | - | 21 W/m² | - |
| 1778111787 | 14.44° C | 91% | 1013.8 hPa | 0 mm | - | 28 W/m² | - |
| 1778111488 | 14.44° C | 91% | 1013.9 hPa | 0 mm | - | 23 W/m² | - |
* Rain latest hour (hover to see other rain measurements)
** Current wind speed in m/s (hover to see current wind gust speed)